| time (UTC) | temp C | wind direction | speed KPH | gust KPH | rain 1hr cm | rain 24hr cm | rain mn cm | humidity % | barometer mb |
| 20260902113056 | 25 | 0 | 0.0 | 6.4 | 0.00 | 0.00 | 0.00 | 90 | 1015.0 |
| 20260902113021 | 25 | 153 | 0.0 | 6.4 | 0.00 | 0.00 | 0.00 | 91 | 1016.4 |
| 20260902111554 | 25 | 0 | 0.0 | 6.4 | 0.00 | 0.00 | 0.00 | 89 | 1014.9 |
| 20260902111522 | 25 | 204 | 0.0 | 6.4 | 0.00 | 0.00 | 0.00 | 90 | 1016.4 |
| 20260902110049 | 25 | 0 | 0.0 | 3.2 | 0.00 | 0.00 | 0.00 | 88 | 1015.0 |
| 20260902110020 | 25 | 203 | 0.0 | 3.2 | 0.00 | 0.00 | 0.00 | 89 | 1016.3 |
| 20260902104554 | 25 | 0 | 0.0 | 3.2 | 0.00 | 0.00 | 0.00 | 87 | 1014.9 |
| 20260902104519 | 25 | 169 | 0.0 | 3.2 | 0.00 | 0.00 | 0.00 | 87 | 1016.2 |
| 20260902103057 | 25 | 140 | 1.6 | 4.8 | 0.00 | 0.00 | 0.00 | 86 | 1014.8 |
| 20260902103033 | 25 | 140 | 1.6 | 4.8 | 0.00 | 0.00 | 0.00 | 86 | 1016.1 |
| 20260902101554 | 25 | 137 | 3.2 | 6.4 | 0.00 | 0.00 | 0.00 | 86 | 1014.9 |
| 20260902101525 | 25 | 137 | 3.2 | 6.4 | 0.00 | 0.00 | 0.00 | 86 | 1016.3 |
| 20260902100055 | 25 | 0 | 0.0 | 4.8 | 0.00 | 0.00 | 0.00 | 85 | 1014.9 |
| 20260902100013 | 25 | 148 | 0.0 | 4.8 | 0.00 | 0.00 | 0.00 | 85 | 1016.4 |
| 20260902094554 | 25 | 149 | 1.6 | 3.2 | 0.00 | 0.00 | 0.00 | 84 | 1014.9 |
| 20260902094511 | 25 | 150 | 1.6 | 4.8 | 0.00 | 0.00 | 0.00 | 85 | 1016.3 |
| 20260902093114 | 25 | 169 | 0.0 | 6.4 | 0.00 | 0.00 | 0.00 | 83 | 1015.1 |
| 20260902093009 | 25 | 169 | 0.0 | 4.8 | 0.00 | 0.00 | 0.00 | 84 | 1016.4 |
| 20260902091552 | 25 | 0 | 0.0 | 4.8 | 0.00 | 0.00 | 0.00 | 83 | 1015.0 |
| 20260902091508 | 25 | 135 | 0.0 | 3.2 | 0.00 | 0.00 | 0.00 | 83 | 1016.3 |
| 20260902090008 | 25 | 112 | 1.6 | 6.4 | 0.00 | 0.00 | 0.00 | 83 | 1016.5 |
| 20260902084557 | 25 | 113 | 1.6 | 4.8 | 0.00 | 0.00 | 0.00 | 81 | 1015.1 |
| 20260902084506 | 25 | 113 | 1.6 | 3.2 | 0.00 | 0.00 | 0.00 | 81 | 1016.5 |
| 20260902083056 | 26 | 111 | 1.6 | 4.8 | 0.00 | 0.00 | 0.00 | 80 | 1014.9 |
| 20260902083003 | 26 | 111 | 1.6 | 4.8 | 0.00 | 0.00 | 0.00 | 81 | 1016.4 |
| 20260902081613 | 26 | 108 | 0.0 | 3.2 | 0.00 | 0.00 | 0.00 | 79 | 1015.0 |
| 20260902081502 | 26 | 108 | 0.0 | 3.2 | 0.00 | 0.00 | 0.00 | 79 | 1016.5 |
| 20260902080100 | 26 | 120 | 0.0 | 3.2 | 0.00 | 0.00 | 0.00 | 78 | 1016.5 |
| 20260902080056 | 26 | 0 | 0.0 | 4.8 | 0.00 | 0.00 | 0.00 | 77 | 1015.1 |
| 20260902074559 | 26 | 117 | 0.0 | 4.8 | 0.00 | 0.00 | 0.00 | 76 | 1016.7 |
| 20260902074556 | 26 | 117 | 0.0 | 4.8 | 0.00 | 0.00 | 0.00 | 76 | 1015.2 |
| 20260902073057 | 27 | 117 | 1.6 | 4.8 | 0.00 | 0.00 | 0.00 | 75 | 1016.5 |
| 20260902073052 | 27 | 117 | 1.6 | 4.8 | 0.00 | 0.00 | 0.00 | 75 | 1015.2 |
| 20260902071602 | 27 | 128 | 1.6 | 6.4 | 0.00 | 0.00 | 0.00 | 74 | 1016.6 |
| 20260902071556 | 27 | 128 | 3.2 | 9.7 | 0.00 | 0.00 | 0.00 | 74 | 1015.2 |
| 20260902070051 | 27 | 145 | 3.2 | 6.4 | 0.00 | 0.00 | 0.00 | 72 | 1016.7 |
| 20260902064616 | 27 | 0 | 6.4 | 14.5 | 0.00 | 0.00 | 0.00 | 71 | 1015.1 |
| 20260902064601 | 27 | 137 | 4.8 | 14.5 | 0.00 | 0.00 | 0.00 | 72 | 1016.5 |
| 20260902063058 | 28 | 146 | 3.2 | 8.0 | 0.00 | 0.00 | 0.00 | 70 | 1015.1 |
| 20260902063051 | 28 | 144 | 1.6 | 8.0 | 0.00 | 0.00 | 0.00 | 70 | 1016.5 |
| 20260902061555 | 28 | 143 | 4.8 | 9.7 | 0.00 | 0.00 | 0.00 | 68 | 1014.9 |
| 20260902061550 | 28 | 130 | 4.8 | 8.0 | 0.00 | 0.00 | 0.00 | 69 | 1016.4 |
| 20260902060109 | 28 | 142 | 3.2 | 12.9 | 0.00 | 0.00 | 0.00 | 66 | 1014.8 |
| 20260902060045 | 28 | 148 | 3.2 | 8.0 | 0.00 | 0.00 | 0.00 | 67 | 1016.3 |
| 20260902054554 | 28 | 115 | 6.4 | 17.7 | 0.00 | 0.00 | 0.00 | 65 | 1014.7 |
| 20260902054542 | 28 | 115 | 6.4 | 14.5 | 0.00 | 0.00 | 0.00 | 66 | 1016.4 |
| 20260902053055 | 28 | 153 | 3.2 | 12.9 | 0.00 | 0.00 | 0.00 | 65 | 1014.8 |
| 20260902053039 | 28 | 153 | 3.2 | 12.9 | 0.00 | 0.00 | 0.00 | 66 | 1016.4 |
| 20260902051547 | 29 | 150 | 6.4 | 14.5 | 0.00 | 0.00 | 0.00 | 66 | 1014.7 |
| 20260902051539 | 29 | 109 | 8.0 | 16.1 | 0.00 | 0.00 | 0.00 | 66 | 1016.3 |
| 20260902050110 | 29 | 140 | 3.2 | 11.3 | 0.00 | 0.00 | 0.00 | 66 | 1014.6 |
| 20260902050034 | 29 | 140 | 3.2 | 11.3 | 0.00 | 0.00 | 0.00 | 66 | 1016.2 |
| 20260902044608 | 30 | 109 | 6.4 | 16.1 | 0.00 | 0.00 | 0.00 | 65 | 1014.3 |
| 20260902044541 | 30 | 103 | 6.4 | 16.1 | 0.00 | 0.00 | 0.00 | 65 | 1016.1 |
| 20260902043056 | 30 | 140 | 6.4 | 16.1 | 0.00 | 0.00 | 0.00 | 64 | 1014.3 |
| 20260902043032 | 30 | 124 | 6.4 | 16.1 | 0.00 | 0.00 | 0.00 | 65 | 1016.1 |
| 20260902041558 | 30 | 113 | 9.7 | 19.3 | 0.00 | 0.00 | 0.00 | 63 | 1014.3 |
| 20260902041532 | 30 | 113 | 8.0 | 19.3 | 0.00 | 0.00 | 0.00 | 64 | 1016.1 |
| 20260902040110 | 30 | 145 | 9.7 | 17.7 | 0.00 | 0.00 | 0.00 | 62 | 1014.2 |
| 20260902040032 | 30 | 145 | 9.7 | 17.7 | 0.00 | 0.00 | 0.00 | 63 | 1016.0 |
| 20260902034601 | 31 | 132 | 9.7 | 17.7 | 0.00 | 0.00 | 0.00 | 61 | 1014.1 |
| 20260902034533 | 31 | 113 | 11.3 | 17.7 | 0.00 | 0.00 | 0.00 | 61 | 1016.0 |
| 20260902033107 | 31 | 93 | 6.4 | 20.9 | 0.00 | 0.00 | 0.00 | 59 | 1014.0 |
| 20260902033030 | 31 | 93 | 6.4 | 20.9 | 0.00 | 0.00 | 0.00 | 60 | 1015.8 |
| 20260902031558 | 31 | 105 | 8.0 | 22.5 | 0.00 | 0.00 | 0.00 | 59 | 1013.6 |
| 20260902031530 | 31 | 105 | 6.4 | 20.9 | 0.00 | 0.00 | 0.00 | 59 | 1015.5 |
| 20260902030057 | 32 | 113 | 9.7 | 20.9 | 0.00 | 0.00 | 0.00 | 58 | 1013.6 |
| 20260902030029 | 32 | 114 | 9.7 | 20.9 | 0.00 | 0.00 | 0.00 | 58 | 1015.3 |
| 20260902024601 | 31 | 150 | 8.0 | 20.9 | 0.00 | 0.00 | 0.00 | 57 | 1013.4 |
| 20260902024529 | 31 | 101 | 6.4 | 20.9 | 0.00 | 0.00 | 0.00 | 57 | 1014.9 |
| 20260902023055 | 31 | 94 | 4.8 | 14.5 | 0.00 | 0.00 | 0.00 | 55 | 1013.2 |
| 20260902023030 | 31 | 114 | 4.8 | 14.5 | 0.00 | 0.00 | 0.00 | 56 | 1014.8 |
| 20260902021558 | 32 | 97 | 3.2 | 6.4 | 0.00 | 0.00 | 0.00 | 54 | 1012.7 |
| 20260902021543 | 32 | 97 | 3.2 | 6.4 | 0.00 | 0.00 | 0.00 | 55 | 1014.5 |
| 20260902020106 | 32 | 84 | 1.6 | 6.4 | 0.00 | 0.00 | 0.00 | 53 | 1012.5 |
| 20260902020027 | 32 | 84 | 1.6 | 4.8 | 0.00 | 0.00 | 0.00 | 54 | 1014.2 |
| 20260902014550 | 32 | 92 | 3.2 | 6.4 | 0.00 | 0.00 | 0.00 | 52 | 1012.2 |
| 20260902014536 | 32 | 90 | 3.2 | 6.4 | 0.00 | 0.00 | 0.00 | 52 | 1014.0 |
| 20260902013059 | 32 | 96 | 1.6 | 4.8 | 0.00 | 0.00 | 0.00 | 50 | 1012.1 |
| 20260902013026 | 32 | 96 | 1.6 | 3.2 | 0.00 | 0.00 | 0.00 | 51 | 1013.9 |
| 20260902011555 | 33 | 116 | 1.6 | 11.3 | 0.00 | 0.00 | 0.00 | 49 | 1012.2 |
| 20260902011528 | 33 | 116 | 1.6 | 11.3 | 0.00 | 0.00 | 0.00 | 49 | 1013.8 |
| 20260902010051 | 33 | 99 | 1.6 | 9.7 | 0.00 | 0.00 | 0.00 | 47 | 1011.9 |
| 20260902010025 | 33 | 99 | 1.6 | 6.4 | 0.00 | 0.00 | 0.00 | 48 | 1013.6 |
| 20260902004552 | 34 | 101 | 1.6 | 8.0 | 0.00 | 0.00 | 0.00 | 46 | 1011.9 |
| 20260902004528 | 34 | 101 | 1.6 | 8.0 | 0.00 | 0.00 | 0.00 | 47 | 1013.6 |
| 20260902003055 | 34 | 133 | 1.6 | 8.0 | 0.00 | 0.00 | 0.00 | 45 | 1012.0 |
| 20260902003029 | 34 | 155 | 1.6 | 8.0 | 0.00 | 0.00 | 0.00 | 46 | 1013.6 |
| 20260902001556 | 35 | 123 | 1.6 | 9.7 | 0.00 | 0.00 | 0.00 | 44 | 1011.9 |
| 20260902001523 | 35 | 136 | 3.2 | 8.0 | 0.00 | 0.00 | 0.00 | 45 | 1013.6 |
| 20260902000022 | 35 | 96 | 0.0 | 4.8 | 0.00 | 0.00 | 0.00 | 44 | 1013.5 |
| 20260901234550 | 35 | 141 | 0.0 | 9.7 | 0.00 | 0.00 | 0.00 | 44 | 1011.9 |
| 20260901234521 | 35 | 124 | 1.6 | 11.3 | 0.00 | 0.00 | 0.00 | 44 | 1013.6 |
| 20260901233050 | 35 | 0 | 1.6 | 12.9 | 0.00 | 0.00 | 0.00 | 43 | 1012.0 |
| 20260901233019 | 35 | 159 | 1.6 | 12.9 | 0.00 | 0.00 | 0.00 | 43 | 1013.7 |
| 20260901231557 | 35 | 0 | 0.0 | 12.9 | 0.00 | 0.00 | 0.00 | 43 | 1012.2 |
| 20260901231521 | 35 | 200 | 0.0 | 6.4 | 0.00 | 0.00 | 0.00 | 43 | 1013.7 |
| 20260901230117 | 36 | 134 | 3.2 | 11.3 | 0.00 | 0.00 | 0.00 | 42 | 1013.8 |
| 20260901230057 | 36 | 123 | 1.6 | 11.3 | 0.00 | 0.00 | 0.00 | 42 | 1012.1 |
| 20260901224552 | 36 | 0 | 0.0 | 8.0 | 0.00 | 0.00 | 0.00 | 42 | 1012.2 |
| 20260901224521 | 36 | 173 | 0.0 | 0.0 | 0.00 | 0.00 | 0.00 | 42 | 1013.9 |
| 20260901223057 | 36 | 57 | 0.0 | 11.3 | 0.00 | 0.00 | 0.00 | 42 | 1012.3 |
| 20260901223024 | 36 | 360 | 1.6 | 8.0 | 0.00 | 0.00 | 0.00 | 42 | 1013.9 |
| 20260901221600 | 36 | 0 | 0.0 | 9.7 | 0.00 | 0.00 | 0.00 | 40 | 1012.3 |
| 20260901221515 | 36 | 108 | 0.0 | 8.0 | 0.00 | 0.00 | 0.00 | 41 | 1013.9 |
| 20260901220055 | 36 | 0 | 6.4 | 14.5 | 0.00 | 0.00 | 0.00 | 39 | 1012.5 |
| 20260901220027 | 36 | 77 | 4.8 | 14.5 | 0.00 | 0.00 | 0.00 | 39 | 1013.9 |
| 20260901214548 | 36 | 92 | 6.4 | 14.5 | 0.00 | 0.00 | 0.00 | 41 | 1012.5 |
| 20260901214513 | 36 | 90 | 4.8 | 14.5 | 0.00 | 0.00 | 0.00 | 41 | 1014.0 |
| 20260901213109 | 36 | 252 | 3.2 | 17.7 | 0.00 | 0.00 | 0.00 | 41 | 1012.7 |
| 20260901213013 | 36 | 195 | 3.2 | 17.7 | 0.00 | 0.00 | 0.00 | 41 | 1014.2 |
| 20260901211556 | 37 | 0 | 1.6 | 8.0 | 0.00 | 0.00 | 0.00 | 41 | 1012.9 |
| 20260901211509 | 37 | 180 | 1.6 | 8.0 | 0.00 | 0.00 | 0.00 | 42 | 1014.3 |
| 20260901210054 | 36 | 0 | 4.8 | 12.9 | 0.00 | 0.00 | 0.00 | 42 | 1013.1 |
| 20260901210008 | 36 | 111 | 3.2 | 11.3 | 0.00 | 0.00 | 0.00 | 43 | 1014.6 |
| 20260901204559 | 36 | 20 | 3.2 | 14.5 | 0.00 | 0.00 | 0.00 | 43 | 1013.3 |
| 20260901204502 | 36 | 59 | 3.2 | 12.9 | 0.00 | 0.00 | 0.00 | 42 | 1014.7 |
| 20260901203121 | 36 | 217 | 0.0 | 12.9 | 0.00 | 0.00 | 0.00 | 44 | 1015.1 |
| 20260901203109 | 36 | 0 | 1.6 | 12.9 | 0.00 | 0.00 | 0.00 | 43 | 1013.5 |
| 20260901201554 | 35 | 105 | 4.8 | 9.7 | 0.00 | 0.00 | 0.00 | 48 | 1015.3 |
| 20260901201550 | 35 | 69 | 4.8 | 14.5 | 0.00 | 0.00 | 0.00 | 48 | 1013.8 |
| 20260901200052 | 35 | 119 | 0.0 | 9.7 | 0.00 | 0.00 | 0.00 | 48 | 1015.7 |
| 20260901200050 | 35 | 0 | 0.0 | 14.5 | 0.00 | 0.00 | 0.00 | 47 | 1014.0 |
| 20260901194651 | 35 | 103 | 4.8 | 14.5 | 0.00 | 0.00 | 0.00 | 46 | 1015.8 |
| 20260901194552 | 35 | 171 | 1.6 | 14.5 | 0.00 | 0.00 | 0.00 | 46 | 1014.1 |
| 20260901193111 | 35 | 252 | 6.4 | 16.1 | 0.00 | 0.00 | 0.00 | 48 | 1014.1 |
| 20260901193048 | 35 | 252 | 3.2 | 16.1 | 0.00 | 0.00 | 0.00 | 49 | 1015.9 |
| 20260901191553 | 35 | 121 | 4.8 | 16.1 | 0.00 | 0.00 | 0.00 | 47 | 1014.4 |
| 20260901191546 | 35 | 109 | 3.2 | 16.1 | 0.00 | 0.00 | 0.00 | 47 | 1016.2 |
| 20260901190106 | 35 | 147 | 6.4 | 16.1 | 0.00 | 0.00 | 0.00 | 49 | 1014.6 |
| 20260901190048 | 35 | 128 | 4.8 | 16.1 | 0.00 | 0.00 | 0.00 | 50 | 1016.3 |
| 20260901184551 | 35 | 157 | 3.2 | 14.5 | 0.00 | 0.00 | 0.00 | 48 | 1014.9 |
| 20260901184546 | 35 | 153 | 3.2 | 12.9 | 0.00 | 0.00 | 0.00 | 49 | 1016.7 |
| 20260901183056 | 34 | 189 | 1.6 | 11.3 | 0.00 | 0.00 | 0.00 | 50 | 1015.2 |
| 20260901183037 | 34 | 180 | 1.6 | 9.7 | 0.00 | 0.00 | 0.00 | 50 | 1016.8 |
| 20260901181603 | 33 | 137 | 4.8 | 19.3 | 0.00 | 0.00 | 0.00 | 52 | 1015.4 |
| 20260901181535 | 33 | 137 | 3.2 | 17.7 | 0.00 | 0.00 | 0.00 | 52 | 1016.9 |
| 20260901180059 | 34 | 0 | 1.6 | 12.9 | 0.00 | 0.00 | 0.00 | 51 | 1015.8 |
| 20260901180037 | 34 | 46 | 1.6 | 12.9 | 0.00 | 0.00 | 0.00 | 51 | 1017.3 |
| 20260901174604 | 34 | 146 | 3.2 | 17.7 | 0.00 | 0.00 | 0.00 | 51 | 1016.0 |
| 20260901174529 | 34 | 136 | 6.4 | 17.7 | 0.00 | 0.00 | 0.00 | 51 | 1017.5 |
| 20260901173053 | 33 | 86 | 4.8 | 14.5 | 0.00 | 0.00 | 0.00 | 52 | 1016.3 |
| 20260901173026 | 33 | 89 | 3.2 | 14.5 | 0.00 | 0.00 | 0.00 | 52 | 1017.7 |
| 20260901171612 | 33 | 134 | 6.4 | 16.1 | 0.00 | 0.00 | 0.00 | 54 | 1016.4 |
| 20260901171526 | 33 | 121 | 6.4 | 14.5 | 0.00 | 0.00 | 0.00 | 54 | 1017.9 |
| 20260901170104 | 33 | 115 | 6.4 | 12.9 | 0.00 | 0.00 | 0.00 | 55 | 1016.4 |
| 20260901170024 | 33 | 126 | 8.0 | 12.9 | 0.00 | 0.00 | 0.00 | 55 | 1018.1 |
| 20260901164554 | 32 | 162 | 1.6 | 14.5 | 0.00 | 0.00 | 0.00 | 58 | 1016.5 |
| 20260901164520 | 32 | 163 | 0.0 | 12.9 | 0.00 | 0.00 | 0.00 | 58 | 1018.3 |
| 20260901163056 | 32 | 84 | 6.4 | 16.1 | 0.00 | 0.00 | 0.00 | 59 | 1016.5 |
| 20260901163018 | 32 | 49 | 6.4 | 16.1 | 0.00 | 0.00 | 0.00 | 59 | 1018.3 |
| 20260901161554 | 32 | 170 | 8.0 | 14.5 | 0.00 | 0.00 | 0.00 | 60 | 1016.6 |
| 20260901161516 | 32 | 156 | 8.0 | 14.5 | 0.00 | 0.00 | 0.00 | 59 | 1018.4 |
| 20260901160059 | 31 | 0 | 1.6 | 17.7 | 0.00 | 0.00 | 0.00 | 62 | 1016.6 |
| 20260901160017 | 31 | 125 | 1.6 | 17.7 | 0.00 | 0.00 | 0.00 | 63 | 1018.4 |
| 20260901154552 | 31 | 117 | 9.7 | 16.1 | 0.00 | 0.00 | 0.00 | 64 | 1016.5 |
| 20260901154511 | 31 | 144 | 9.7 | 16.1 | 0.00 | 0.00 | 0.00 | 64 | 1018.3 |
| 20260901153103 | 31 | 211 | 4.8 | 12.9 | 0.00 | 0.00 | 0.00 | 64 | 1016.5 |
| 20260901153008 | 31 | 208 | 3.2 | 12.9 | 0.00 | 0.00 | 0.00 | 64 | 1018.1 |
| 20260901151558 | 30 | 106 | 4.8 | 12.9 | 0.00 | 0.00 | 0.00 | 67 | 1016.5 |
| 20260901151506 | 30 | 140 | 4.8 | 12.9 | 0.00 | 0.00 | 0.00 | 67 | 1018.1 |
| 20260901150053 | 30 | 127 | 3.2 | 12.9 | 0.00 | 0.00 | 0.00 | 69 | 1016.5 |
| 20260901150005 | 30 | 127 | 3.2 | 12.9 | 0.00 | 0.00 | 0.00 | 70 | 1018.2 |
| 20260901144551 | 30 | 129 | 1.6 | 11.3 | 0.00 | 0.00 | 0.00 | 72 | 1016.4 |
| 20260901144501 | 30 | 146 | 1.6 | 11.3 | 0.00 | 0.00 | 0.00 | 72 | 1018.1 |
| 20260901143113 | 29 | 140 | 1.6 | 9.7 | 0.00 | 0.00 | 0.00 | 73 | 1018.1 |
| 20260901143054 | 29 | 140 | 0.0 | 9.7 | 0.00 | 0.00 | 0.00 | 73 | 1016.4 |
| 20260901141559 | 29 | 72 | 1.6 | 8.0 | 0.00 | 0.00 | 0.00 | 76 | 1016.3 |
| 20260901140055 | 28 | 172 | 3.2 | 6.4 | 0.00 | 0.00 | 0.00 | 77 | 1018.3 |
| 20260901134618 | 27 | 0 | 0.0 | 3.2 | 0.00 | 0.00 | 0.00 | 83 | 1016.4 |
| 20260901133059 | 26 | 0 | 0.0 | 1.6 | 0.00 | 0.00 | 0.00 | 88 | 1016.2 |
| 20260901131606 | 25 | 0 | 0.0 | 1.6 | 0.00 | 0.00 | 0.00 | 93 | 1016.2 |
| 20260901131557 | 25 | 121 | 0.0 | 1.6 | 0.00 | 0.00 | 0.00 | 93 | 1017.9 |
| 20260901130059 | 25 | 0 | 0.0 | 0.0 | 0.00 | 0.00 | 0.00 | 92 | 1016.1 |
| 20260901130050 | 25 | 121 | 0.0 | 0.0 | 0.00 | 0.00 | 0.00 | 93 | 1017.7 |
| 20260901124603 | 24 | 0 | 0.0 | 1.6 | 0.00 | 0.00 | 0.00 | 92 | 1016.0 |
| 20260901124555 | 24 | 121 | 0.0 | 1.6 | 0.00 | 0.00 | 0.00 | 92 | 1017.8 |
| 20260901123053 | 24 | 0 | 0.0 | 1.6 | 0.00 | 0.00 | 0.00 | 91 | 1015.9 |
| 20260901123048 | 24 | 121 | 0.0 | 1.6 | 0.00 | 0.00 | 0.00 | 92 | 1017.6 |
| 20260901121557 | 25 | 0 | 0.0 | 0.0 | 0.00 | 0.00 | 0.00 | 91 | 1015.8 |
| 20260901121548 | 25 | 121 | 0.0 | 0.0 | 0.00 | 0.00 | 0.00 | 91 | 1017.5 |
| 20260901120059 | 25 | 0 | 0.0 | 1.6 | 0.00 | 0.00 | 0.00 | 90 | 1015.9 |
| 20260901120046 | 25 | 121 | 0.0 | 0.0 | 0.00 | 0.00 | 0.00 | 91 | 1017.6 |
| 20260901114601 | 25 | 0 | 0.0 | 3.2 | 0.00 | 0.00 | 0.00 | 90 | 1016.0 |
| 20260901114557 | 25 | 121 | 0.0 | 1.6 | 0.00 | 0.00 | 0.00 | 91 | 1017.5 |